#timestamp,LO_Frequency,Hit,StdDev 
1525118415.7,286047001.1,N
1525118435.6,286046998.2,N
1525118455.4,286046998.8,N
1525118475.3,286046998.3,N
1525118495.1,286046998.8,N
1525118515.8,286046997.4,N
1525118535.7,286046997.1,N
1525118555.5,286046996.8,N
1525118575.4,286046998.4,N
1525118595.2,286046999.5,N
1525118615.0,286046999.6,N
1525118615.9,286046999.6,N
1525118635.8,286046998.8,N
1525118655.6,286046999.4,N
1525118675.5,286046995.2,Y
1525118695.3,286046995.3,P
1525118715.1,286046995.6,N
1525118735.9,286046995.8,N
1525118755.7,286046995.5,Y
1525118775.5,286047000.7,P
1525118795.4,286046998.4,N
1525118815.2,286046998.9,N
1525118835.1,286046999.6,N
1525118836.0,286046999.6,N
1525118855.8,286046999.1,N
1525118875.6,286046998.1,N
1525118895.5,286047000.6,N
1525118915.3,286047000.6,N
1525118935.2,286046999.4,N
1525118955.9,286046999.2,N
1525118975.7,286046999.5,N
1525118995.6,286046998.7,N
1525119015.4,286046998.1,N
1525119035.3,286047000.7,N
1525119055.1,286047000.8,N
1525119056.0,286047000.8,N
1525119075.8,286047001.2,N
1525119095.7,286047002.8,N
1525119115.5,286047002.3,N
1525119135.3,286047002.8,N
1525119155.2,286047002.2,N
1525119175.0,286047004.2,N
1525119175.9,286047004.2,N
1525119195.8,286047003.8,N
1525119215.6,286047001.4,N
1525119235.4,286047003.5,N
1525119255.3,286047003.2,N
1525119275.1,286047003.8,N
1525119295.9,286047001.3,N
1525119315.7,286047003.7,N
1525119335.5,286047002.9,N
1525119355.4,286047002.9,N
1525119375.2,286047003.8,N
1525119395.0,286047001.5,N
1525119395.9,286047001.5,N
1525119415.8,286047002.5,N
1525119435.6,286047000.6,N
1525119455.5,286047001.6,N
1525119475.3,286047002.8,N
1525119495.1,286047001.6,N
1525119515.9,286047003.5,N
1525119535.7,286047005.8,Y
1525119555.6,286047001.8,P
1525119575.4,286047002.6,P
1525119595.2,286047000.1,N
1525119615.1,286047002.2,N
1525119616.0,286047002.2,N
1525119635.8,286046999.7,N
1525119655.6,286047001.8,N
1525119675.5,286047003.0,N
1525119695.3,286047003.7,Y
1525119715.2,286047000.6,P
1525119735.9,286047000.4,N
1525119755.7,286047000.4,N
1525119775.6,286047000.7,N
1525119795.4,286047002.6,Y
1525119815.2,286047000.3,P
1525119835.1,286046998.6,P
1525119836.0,286046998.6,N
1525119855.8,286046998.3,N
1525119875.7,286047000.3,N
1525119895.5,286047001.1,N
1525119915.3,286047000.7,N
1525119935.2,286047002.6,N
1525119955.0,286047000.4,N
1525119955.9,286047000.4,N
1525119975.7,286047001.2,N
1525119995.6,286047000.2,N
1525120015.4,286047002.8,N
1525120035.3,286047000.8,N
1525120055.1,286047000.4,N
1525120075.8,286046998.4,N
1525120095.7,286046998.2,N
1525120115.5,286047000.3,N
1525120135.4,286047001.9,N
1525120155.2,286047001.7,N
1525120175.0,286047000.3,N
1525120175.9,286047000.3,N
1525120195.8,286046999.9,N
1525120215.6,286047000.0,N
1525120235.5,286047000.6,N
1525120255.3,286046998.6,N
1525120275.1,286047000.0,N
1525120295.9,286047001.4,N
1525120315.7,286047002.1,N
1525120335.5,286047003.9,Y
1525120355.4,286047002.3,P
1525120375.2,286047002.4,N
1525120395.1,286046999.8,N
1525120396.0,286046999.8,N
1525120415.8,286047000.3,N
1525120435.6,286047002.2,N
1525120455.5,286047003.7,Y
1525120475.3,286047002.6,P
1525120495.2,286047002.8,P
1525120515.9,286047000.0,N
1525120535.7,286047000.4,N
1525120555.6,286047002.7,N
1525120575.4,286047001.6,N
1525120595.3,286047002.0,N
1525120615.1,286047002.3,N
1525120616.0,286047002.3,N
1525120635.8,286047000.1,N
1525120655.7,286047002.8,N
1525120675.5,286047000.6,N
1525120695.3,286047000.5,N
1525120715.2,286047002.5,N
1525120735.0,286046999.9,N
1525120735.9,286046999.9,N
1525120755.8,286047000.2,N
1525120775.6,286047000.7,N
1525120795.4,286047000.6,N
1525120815.3,286046998.5,N
1525120835.1,286047001.0,N
1525120855.8,286047000.3,N
1525120875.7,286047002.6,N
1525120895.5,286047001.5,N
1525120915.4,286047002.4,N
1525120935.2,286047002.4,N
1525120955.0,286047002.8,N
1525120955.9,286047002.8,N
1525120975.8,286047002.4,N
1525120995.6,286047002.8,N
1525121015.4,286047002.4,N
1525121035.3,286047002.6,N
1525121055.1,286047002.4,N
1525121075.9,286047002.7,N
1525121095.7,286047001.4,N
1525121115.5,286047002.0,N
1525121135.4,286046999.7,N
1525121155.2,286047002.6,N
1525121175.0,286047001.8,N
1525121175.9,286047001.8,N
1525121195.8,286047001.7,N
1525121215.6,286047000.1,N
1525121235.5,286047001.1,N
1525121255.3,286047001.1,N
1525121275.1,286047000.4,N
1525121295.9,286047000.6,N
1525121315.7,286047002.5,N
1525121335.6,286047000.3,N
1525121355.4,286047002.4,N
1525121375.2,286047001.4,N
1525121395.1,286047002.1,N
1525121396.0,286047002.1,N
1525121415.8,286047002.7,Y
1525121435.7,286046998.3,P
1525121455.5,286047000.7,N
1525121475.3,286046998.1,N
1525121495.2,286046999.8,N
1525121515.0,286046998.1,N
1525121515.9,286046998.1,N
1525121535.7,286046998.2,N
1525121555.6,286047000.4,N
1525121575.4,286047000.5,N
1525121595.3,286047001.3,N
1525121615.1,286047000.3,N
1525121616.0,286047000.3,N
1525121635.8,286047002.4,N
1525121655.7,286046999.7,N
1525121675.5,286047000.9,N
1525121695.3,286046999.9,N
1525121715.2,286047002.8,N
1525121735.0,286047000.3,N
1525121735.9,286047000.3,N
1525121755.8,286046999.7,N
1525121775.6,286047000.2,N
1525121795.4,286047002.3,N
1525121815.3,286047000.3,N
1525121835.1,286047001.5,N
1525121855.9,286047002.1,N
1525121875.7,286047004.3,Y
1525121895.5,286046999.7,P
1525121915.4,286046999.7,N
1525121935.2,286047002.0,P
1525121955.0,286047000.0,N
1525121955.9,286047000.0,N
1525121975.8,286046999.9,N
1525121995.6,286047002.4,Y
